Location: Deneb Observatory
(47.2267°N, 100.4953°W)
Time: 21:22:37
(UTC-05:00)

Amateur Radio Satellites - All Passes

Search period start: 27 March 2017 20:52
Search period end: 28 March 2017 20:52
Location: Deneb Observatory, 47.2267°N, 100.4953°W

Satellite Date Start Highest point End Downlink Frequencies (MHz)
Time Altitude Azimuth
Tancredo 1 27 Mar 20:53:37 20:55:33 15° 136° (SE) 20:57:29 437.200
ISS 27 Mar 20:59:22 21:01:26 16° 136° (SE) 21:03:31 437.550
XW-2A 27 Mar 21:07:35 21:10:03 18° 267° (W) 21:12:33 145.665 - 145.685
STRAND 1 27 Mar 21:09:16 21:14:24 68° 102° (ESE) 21:19:28 437.568
AO-73 27 Mar 21:13:01 21:17:23 51° 72° (ENE) 21:21:42 145.935
HO-68 27 Mar 21:17:37 21:24:11 39° 263° (W) 21:30:48 435.675
PCSat 27 Mar 21:18:55 21:21:29 14° 257° (WSW) 21:24:04 145.827
YUBILEINY 27 Mar 21:21:50 21:29:18 33° 277° (W) 21:36:45 435.215
DELFI C3 27 Mar 21:28:29 21:31:22 20° 64° (ENE) 21:34:15 145.870
AO-85 27 Mar 21:35:15 21:39:20 39° 120° (ESE) 21:43:11 145.980
UWE-3 27 Mar 21:43:47 21:48:15 46° 262° (W) 21:52:41 435.000/436.395/437.385
AAUSAT CUBESAT 2 27 Mar 21:55:36 21:59:08 27° 265° (W) 22:02:41 437.432
M-CUBED/EXP-1 PRIME 27 Mar 22:03:27 22:06:26 17° 306° (NW) 22:09:27 437.505
RS-15 27 Mar 22:11:47 22:24:14 83° 51° (NE) 22:36:08 29.354- 29.394
Oscar 11 27 Mar 22:11:47 22:15:56 47° 261° (W) 22:20:08 .
ZACube-1 27 Mar 22:22:01 22:26:05 31° 265° (W) 22:30:05 437.345
CUBEBUG 2 27 Mar 22:22:43 22:25:20 15° 272° (W) 22:27:57 437.445
Tancredo 1 27 Mar 22:28:06 22:31:16 86° 154° (SSE) 22:34:27 437.200
ISS 27 Mar 22:34:14 22:37:30 86° 157° (SSE) 22:40:48 437.550
UNISAT 6 27 Mar 22:38:06 22:40:09 13° 88° (E) 22:42:11 437.425
LO-87 27 Mar 22:38:57 22:40:56 14° 63° (ENE) 22:42:56 145.935 - 145.965
SO-50 27 Mar 22:41:47 22:45:32 24° 36° (NE) 22:49:14 436.795
STRAND 1 27 Mar 22:49:29 22:53:05 20° 301° (WNW) 22:56:39 437.568
AO-73 27 Mar 22:50:41 22:53:53 19° 269° (W) 22:57:03 145.935
PRISM 27 Mar 22:58:26 23:02:18 37° 98° (E) 23:06:11 437.425
DELFI C3 27 Mar 23:02:13 23:05:54 39° 262° (W) 23:09:37 145.870
BEESAT 3 27 Mar 23:07:27 23:11:04 36° 119° (ESE) 23:14:45 437.485
ESTCUBE 1 27 Mar 23:08:17 23:11:37 21° 63° (ENE) 23:14:58 437.505/2401.250
AO-85 27 Mar 23:16:01 23:19:48 30° 318° (NW) 23:23:25 145.980
BEESAT 2 27 Mar 23:26:42 23:29:56 24° 115° (ESE) 23:33:13 435.950
TIGRISAT 28 Mar 00:02:18 00:06:46 84° 103° (ESE) 00:11:05 435.000
Tancredo 1 28 Mar 00:04:37 00:07:37 37° 353° (N) 00:10:37 437.200
LO-87 28 Mar 00:10:30 00:14:00 49° 260° (W) 00:17:33 145.935 - 145.965
ISS 28 Mar 00:11:06 00:14:13 38° 354° (N) 00:17:19 437.550
UNISAT 6 28 Mar 00:12:59 00:17:25 71° 286° (WNW) 00:21:43 437.425
VELOX 1 28 Mar 00:13:51 00:17:41 30° 66° (ENE) 00:21:33 145.980
FO-29 28 Mar 00:14:00 00:20:03 64° 101° (E) 00:25:27 435.910
NANOSAT C BR1 28 Mar 00:21:03 00:22:39 12° 88° (E) 00:24:13 145.865
SO-50 28 Mar 00:21:54 00:26:22 63° 237° (WSW) 00:30:48 436.795
RS-15 28 Mar 00:25:14 00:35:29 34° 256° (WSW) 00:45:24 29.354- 29.394
UKube-1 28 Mar 00:25:15 00:27:24 14° 58° (ENE) 00:29:32 .
EO-79 28 Mar 00:25:53 00:28:17 15° 90° (E) 00:30:41 145.935-145.965
PRISM 28 Mar 00:34:05 00:37:25 24° 296° (WNW) 00:40:44 437.425
AIST 2D 28 Mar 00:43:27 00:46:42 35° 97° (E) 00:49:55 435.315
ESTCUBE 1 28 Mar 00:43:47 00:48:07 48° 261° (W) 00:52:29 437.505/2401.250
BEESAT 3 28 Mar 00:45:13 00:48:43 29° 318° (NW) 00:52:17 437.485
SPROUT 28 Mar 00:46:29 00:50:40 52° 72° (ENE) 00:54:53 437.525
POLYITAN 1 28 Mar 00:53:32 00:57:13 28° 95° (E) 01:00:50 437.675
QB50P2 28 Mar 00:58:06 01:01:58 33° 96° (E) 01:05:48 145.880/145.840
50 SAT 28 Mar 00:58:57 01:02:17 48° 72° (ENE) 01:05:38 437.505
BEESAT 2 28 Mar 01:03:45 01:07:31 41° 314° (NW) 01:11:23 435.950
DUCHIFAT 1 28 Mar 01:07:58 01:11:48 32° 97° (E) 01:15:34 145.980
BUGSAT 1 28 Mar 01:18:56 01:21:25 15° 90° (E) 01:23:53 437.445
O/OREOS (USA 219) 28 Mar 01:20:48 01:21:11 10° 39° (NE) 01:21:33 437.305
DX 1 28 Mar 01:21:34 01:25:51 61° 72° (ENE) 01:30:10 434.975-435.025
TIGRISAT 28 Mar 01:40:48 01:42:47 13° 303° (WNW) 01:44:44 435.000
Tancredo 1 28 Mar 01:41:04 01:44:09 44° 14° (NNE) 01:47:15 437.200
ISS 28 Mar 01:47:54 01:51:06 46° 14° (NNE) 01:54:18 437.550
VELOX 1 28 Mar 01:50:09 01:54:05 32° 264° (W) 01:58:04 145.980
NANOSAT C BR1 28 Mar 01:54:38 01:58:53 74° 286° (WNW) 02:03:04 145.865
UKube-1 28 Mar 01:58:31 02:02:49 79° 256° (WSW) 02:07:11 .
FO-29 28 Mar 01:59:52 02:04:33 24° 304° (WNW) 02:08:55 435.910
EO-79 28 Mar 02:00:16 02:04:28 59° 287° (WNW) 02:08:36 145.935-145.965
Oscar 19 28 Mar 02:16:59 02:20:59 22° 92° (E) 02:24:58 437.125/150
AIST 2D 28 Mar 02:17:20 02:19:41 17° 295° (WNW) 02:22:01 435.315
SPROUT 28 Mar 02:24:02 02:26:54 17° 269° (W) 02:29:46 437.525
POLYITAN 1 28 Mar 02:29:15 02:32:59 31° 293° (WNW) 02:36:42 437.675
QB50P2 28 Mar 02:34:06 02:37:39 26° 294° (WNW) 02:41:11 145.880/145.840
50 SAT 28 Mar 02:34:10 02:35:37 12° 270° (W) 02:37:04 437.505
BEESAT 28 Mar 02:39:55 02:43:54 27° 64° (ENE) 02:47:55 436.000
Gurwin Techsat 1B 28 Mar 02:43:47 02:47:57 23° 92° (E) 02:52:06 435.225
DUCHIFAT 1 28 Mar 02:43:49 02:47:21 26° 295° (WNW) 02:50:52 145.980
MOZHAYETS 4 28 Mar 02:45:02 02:47:10 13° 57° (ENE) 02:49:18
BEESAT 2 28 Mar 02:45:16 02:46:22 11° 336° (NNW) 02:47:28 435.950
BUGSAT 1 28 Mar 02:53:02 02:57:09 55° 288° (WNW) 03:01:11 437.445
ITUPSAT 1 28 Mar 02:56:45 03:01:08 37° 67° (ENE) 03:05:31 437.325
O/OREOS (USA 219) 28 Mar 02:57:10 03:01:43 53° 60° (ENE) 03:06:13 437.305
DX 1 28 Mar 02:59:54 03:02:27 15° 270° (W) 03:05:00 434.975-435.025
Tancredo 1 28 Mar 03:17:14 03:20:20 49° 212° (SSW) 03:23:26 437.200
ISS 28 Mar 03:24:25 03:27:38 49° 213° (SSW) 03:30:50 437.550
KKS-1 28 Mar 03:50:59 03:53:19 14° 58° (ENE) 03:55:40 437.445
Oscar 19 28 Mar 03:55:35 04:00:37 55° 291° (WNW) 04:05:40 437.125/150
ITAMSAT 1 28 Mar 04:07:27 04:11:28 22° 92° (E) 04:15:28 435.822/435.867
BEESAT 28 Mar 04:17:00 04:21:30 41° 262° (W) 04:26:02 436.000
MOZHAYETS 4 28 Mar 04:19:02 04:23:39 88° 264° (W) 04:28:15
STARS 28 Mar 04:22:41 04:24:52 14° 58° (ENE) 04:27:02 437.465
Gurwin Techsat 1B 28 Mar 04:23:03 04:28:15 55° 291° (WNW) 04:33:26 435.225
AO-85 28 Mar 04:23:48 04:26:11 15° 32° (NNE) 04:28:34 145.980
ITUPSAT 1 28 Mar 04:34:50 04:39:01 29° 265° (W) 04:43:12 437.325
O/OREOS (USA 219) 28 Mar 04:37:25 04:40:44 20° 259° (W) 04:44:02 437.305
AO-7 28 Mar 04:46:52 04:54:38 41° 98° (E) 05:02:20 .
CUBESAT XI-V 28 Mar 05:15:46 05:20:17 62° 72° (ENE) 05:24:51 437.345
KKS-1 28 Mar 05:24:48 05:29:16 80° 256° (WSW) 05:33:47 437.445
M-CUBED/EXP-1 PRIME 28 Mar 05:43:54 05:46:39 19° 55° (NE) 05:49:32 437.505
BEESAT 3 28 Mar 05:44:36 05:46:43 14° 29° (NNE) 05:48:49 437.485
ITAMSAT 1 28 Mar 05:46:11 05:51:17 55° 291° (WNW) 05:56:19 435.822/435.867
STARS 28 Mar 05:56:08 06:00:35 83° 257° (WSW) 06:05:03 437.465
MOZHAYETS 4 28 Mar 06:00:30 06:01:29 11° 274° (W) 06:02:28
AO-85 28 Mar 06:03:15 06:07:11 83° 52° (NE) 06:11:11 145.980
BEESAT 2 28 Mar 06:04:33 06:05:52 11° 25° (NNE) 06:07:12 435.950
DOVE 4 28 Mar 06:13:08 06:14:53 11° 84° (E) 06:16:37 437.250
YUBILEINY 28 Mar 06:38:54 06:42:26 13° 70° (ENE) 06:45:58 435.215
AO-7 28 Mar 06:39:38 06:47:36 53° 299° (WNW) 06:55:33 .
XW-2F 28 Mar 06:50:19 06:51:50 12° 89° (E) 06:53:19 145.980 - 146.000
STRAND 1 28 Mar 06:50:52 06:54:38 21° 60° (ENE) 06:58:25 437.568
LilacSat-2 28 Mar 06:54:22 06:56:32 15° 90° (E) 06:58:43 437.200
CUBESAT XI-V 28 Mar 06:55:15 06:58:06 16° 271° (W) 07:00:57 437.345
NUDT-PHONESAT 28 Mar 07:09:42 07:12:07 16° 92° (E) 07:14:30 437.300
XW-2D 28 Mar 07:16:06 07:19:14 25° 95° (E) 07:22:21 145.860 - 145.880
M-CUBED/EXP-1 PRIME 28 Mar 07:17:01 07:20:41 50° 255° (WSW) 07:24:43 437.505
KAITUO 1B 28 Mar 07:18:55 07:21:48 21° 94° (E) 07:24:39 145.475/437.950
BEESAT 3 28 Mar 07:21:06 07:25:07 62° 50° (NE) 07:29:06 437.485
XW-2B 28 Mar 07:21:59 07:25:16 28° 96° (E) 07:28:31 145.730 - 145.750
NO-84 28 Mar 07:30:27 07:33:01 30° 138° (SE) 07:35:35 435.350 FM
XW-2C 28 Mar 07:32:06 07:35:36 36° 97° (E) 07:39:05 145.795 - 145.815
BEESAT 2 28 Mar 07:40:46 07:44:40 43° 46° (NE) 07:48:33 435.950
AO-85 28 Mar 07:45:54 07:46:58 11° 250° (WSW) 07:48:01 145.980
DOVE 4 28 Mar 07:48:03 07:53:25 78° 102° (ESE) 07:58:39 437.250
CUTE-I 28 Mar 07:48:26 07:53:39 49° 100° (E) 07:58:48 437.470
SEEDS 28 Mar 08:21:15 08:22:59 12° 88° (E) 08:24:43 437.485
XW-2F 28 Mar 08:22:40 08:26:21 57° 286° (WNW) 08:30:00 145.980 - 146.000
XW-2A 28 Mar 08:25:53 08:28:31 21° 94° (E) 08:31:06 145.665 - 145.685
LilacSat-2 28 Mar 08:27:28 08:31:06 46° 288° (WNW) 08:34:42 437.200
STRAND 1 28 Mar 08:28:15 08:33:22 64° 258° (WSW) 08:38:30 437.568
YUBILEINY 28 Mar 08:28:47 08:37:21 63° 92° (E) 08:45:55 435.215
CUTE 1.7 + AOD 2 28 Mar 08:30:21 08:33:44 23° 93° (E) 08:37:06 437.475
CUBEBUG 2 28 Mar 08:33:28 08:35:09 12° 87° (E) 08:36:49 437.445
AO-7 28 Mar 08:34:03 08:38:34 16° 322° (NW) 08:43:06 .
HO-68 28 Mar 08:41:05 08:47:40 37° 96° (E) 08:54:12 435.675
NUDT-PHONESAT 28 Mar 08:42:46 08:46:14 39° 289° (WNW) 08:49:39 437.300
FO-29 28 Mar 08:48:44 08:51:01 12° 46° (NE) 08:53:16 435.910
XW-2D 28 Mar 08:50:13 08:53:25 27° 292° (WNW) 08:56:36 145.860 - 145.880
KAITUO 1B 28 Mar 08:52:34 08:55:53 31° 291° (WNW) 08:59:09 145.475/437.950
XW-2B 28 Mar 08:56:18 08:59:23 24° 293° (WNW) 09:02:26 145.730 - 145.750
BEESAT 3 28 Mar 08:59:46 09:02:17 16° 248° (WSW) 09:04:46 437.485
XW-2C 28 Mar 09:06:52 09:09:35 19° 295° (WNW) 09:12:17 145.795 - 145.815
NO-84 28 Mar 09:07:51 09:10:30 34° 337° (NNW) 09:13:12 435.350 FM
BEESAT 2 28 Mar 09:18:58 09:22:14 24° 245° (WSW) 09:25:29 435.950
DOVE 4 28 Mar 09:26:53 09:30:27 19° 301° (WNW) 09:34:00 437.250
CUTE-I 28 Mar 09:28:58 09:33:26 27° 298° (WNW) 09:37:52 437.470
TIGRISAT 28 Mar 09:29:12 09:31:51 15° 59° (ENE) 09:34:28 435.000
UWE-3 28 Mar 09:30:33 09:34:17 28° 94° (E) 09:37:56 435.000/436.395/437.385
AAUSAT CUBESAT 2 28 Mar 09:33:51 09:37:40 35° 97° (E) 09:41:29 437.432
UNISAT 6 28 Mar 09:39:10 09:42:28 20° 62° (ENE) 09:45:47 437.425
PRISM 28 Mar 09:50:27 09:54:16 39° 69° (ENE) 09:58:06 437.425
SEEDS 28 Mar 09:54:58 09:59:09 70° 286° (WNW) 10:03:20 437.485
Oscar 11 28 Mar 09:56:00 09:59:33 25° 94° (E) 10:03:05 .
XW-2A 28 Mar 09:58:24 10:01:17 26° 292° (WNW) 10:04:07 145.665 - 145.685
CUTE 1.7 + AOD 2 28 Mar 10:05:47 10:09:41 37° 291° (WNW) 10:13:34 437.475
ZACube-1 28 Mar 10:06:47 10:10:46 39° 97° (E) 10:14:40 437.345
CUBEBUG 2 28 Mar 10:07:57 10:12:23 76° 285° (WNW) 10:16:39 437.445
PCSat 28 Mar 10:18:02 10:23:12 48° 115° (ESE) 10:28:25 145.827
YUBILEINY 28 Mar 10:27:01 10:34:44 34° 295° (WNW) 10:42:29 435.215
FO-29 28 Mar 10:27:16 10:34:32 47° 66° (ENE) 10:41:15 435.910
HO-68 28 Mar 10:28:43 10:35:34 51° 296° (WNW) 10:42:26 435.675
AO-73 28 Mar 10:33:54 10:38:08 70° 102° (ESE) 10:42:15 145.935
DELFI C3 28 Mar 10:36:26 10:39:27 20° 93° (E) 10:42:26 145.870
NO-84 28 Mar 10:46:35 10:48:40 18° 358° (N) 10:50:49 435.350 FM
TIGRISAT 28 Mar 11:03:15 11:07:57 79° 258° (WSW) 11:12:37 435.000
UWE-3 28 Mar 11:06:56 11:10:45 31° 293° (WNW) 11:14:27 435.000/436.395/437.385
AAUSAT CUBESAT 2 28 Mar 11:09:37 11:12:59 24° 294° (WNW) 11:16:20 437.432
UNISAT 6 28 Mar 11:14:10 11:18:47 58° 260° (W) 11:23:23 437.425
NANOSAT C BR1 28 Mar 11:15:50 11:18:14 15° 60° (ENE) 11:20:39 145.865
AIST 2D 28 Mar 11:21:06 11:23:54 22° 67° (ENE) 11:26:41 435.315
EO-79 28 Mar 11:21:08 11:24:01 18° 62° (ENE) 11:26:55 145.935-145.965
PRISM 28 Mar 11:26:39 11:29:42 20° 267° (W) 11:32:48 437.425
Oscar 11 28 Mar 11:31:50 11:35:46 36° 292° (WNW) 11:39:42 .
LO-87 28 Mar 11:36:35 11:37:29 11° 89° (E) 11:38:24 145.935 - 145.965
ZACube-1 28 Mar 11:43:33 11:46:51 22° 296° (WNW) 11:50:05 437.345
CUBEBUG 2 28 Mar 11:47:44 11:48:09 10° 305° (NW) 11:48:34 437.445
POLYITAN 1 28 Mar 11:48:46 11:52:35 32° 67° (ENE) 11:56:24 437.675
QB50P2 28 Mar 11:53:20 11:57:17 38° 69° (ENE) 12:01:16 145.880/145.840
PCSat 28 Mar 12:01:50 12:06:46 34° 316° (NW) 12:11:44 145.827
DUCHIFAT 1 28 Mar 12:02:23 12:06:17 36° 69° (ENE) 12:10:12 145.980
DELFI C3 28 Mar 12:10:40 12:14:22 38° 290° (WNW) 12:18:04 145.870
BUGSAT 1 28 Mar 12:11:25 12:14:18 18° 62° (ENE) 12:17:10 437.445
AO-73 28 Mar 12:11:38 12:13:49 14° 300° (WNW) 12:15:59 145.935
FO-29 28 Mar 12:12:12 12:19:33 44° 263° (W) 12:26:25 435.910
HO-68 28 Mar 12:18:45 12:21:42 13° 318° (NW) 12:24:39 435.675
NO-84 28 Mar 12:24:16 12:26:54 27° 19° (NNE) 12:29:40 435.350 FM
ESTCUBE 1 28 Mar 12:33:07 12:37:00 27° 95° (E) 12:40:51 437.505/2401.250
RS-15 28 Mar 12:39:05 12:49:39 39° 106° (ESE) 13:00:29 29.354- 29.394
NANOSAT C BR1 28 Mar 12:49:12 12:53:26 68° 258° (WSW) 12:57:42 145.865
AIST 2D 28 Mar 12:53:57 12:57:00 27° 264° (W) 13:00:04 435.315
EO-79 28 Mar 12:55:12 12:59:24 54° 260° (W) 13:03:37 145.935-145.965
LO-87 28 Mar 13:07:43 13:11:21 62° 286° (WNW) 13:14:56 145.935 - 145.965
POLYITAN 1 28 Mar 13:24:41 13:28:23 28° 265° (W) 13:32:05 437.675
QB50P2 28 Mar 13:29:44 13:33:11 23° 266° (W) 13:36:39 145.880/145.840
VELOX 1 28 Mar 13:36:24 13:40:35 37° 98° (E) 13:44:43 145.980
Oscar 19 28 Mar 13:36:35 13:41:24 43° 68° (ENE) 13:46:16 437.125/150
DUCHIFAT 1 28 Mar 13:38:35 13:42:03 24° 266° (W) 13:45:32 145.980
UKube-1 28 Mar 13:43:50 13:46:05 14° 90° (E) 13:48:20 .
BUGSAT 1 28 Mar 13:45:06 13:49:15 54° 259° (W) 13:53:28 437.445
PCSat 28 Mar 13:49:49 13:51:54 12° 340° (NNW) 13:53:59 145.827
50 SAT 28 Mar 13:53:03 13:56:16 33° 98° (E) 13:59:29 437.505
AO-7 28 Mar 13:59:57 14:05:44 21° 44° (NE) 14:11:29 .
NO-84 28 Mar 14:01:33 14:04:36 58° 217° (SW) 14:07:52 435.350 FM
SPROUT 28 Mar 14:04:42 14:08:59 66° 102° (ESE) 14:13:13 437.525
Gurwin Techsat 1B 28 Mar 14:07:36 14:12:42 49° 68° (ENE) 14:17:49 435.225
ESTCUBE 1 28 Mar 14:09:44 14:13:51 35° 293° (WNW) 14:17:57 437.505/2401.250
SO-50 28 Mar 14:39:54 14:43:13 20° 113° (ESE) 14:46:31 436.795
DX 1 28 Mar 14:42:28 14:46:54 75° 104° (ESE) 14:51:16 434.975-435.025
RS-15 28 Mar 14:49:06 15:01:15 77° 311° (NW) 15:13:45 29.354- 29.394
VELOX 1 28 Mar 15:13:10 15:16:53 26° 295° (WNW) 15:20:34 145.980
Oscar 19 28 Mar 15:16:33 15:20:53 27° 266° (W) 15:25:16 437.125/150
UKube-1 28 Mar 15:18:15 15:22:34 67° 288° (WNW) 15:26:52 .
50 SAT 28 Mar 15:26:36 15:29:06 19° 295° (WNW) 15:31:37 437.505
ITAMSAT 1 28 Mar 15:28:03 15:33:02 47° 68° (ENE) 15:38:02 435.822/435.867
SPROUT 28 Mar 15:41:53 15:44:23 15° 300° (WNW) 15:46:54 437.525
Gurwin Techsat 1B 28 Mar 15:48:29 15:52:53 26° 267° (W) 15:57:19 435.225
AO-7 28 Mar 15:48:55 15:57:11 73° 66° (ENE) 16:05:28 .
MOZHAYETS 4 28 Mar 16:11:51 16:14:53 17° 90° (E) 16:17:52
BEESAT 28 Mar 16:13:37 16:18:05 38° 98° (E) 16:22:30 436.000
SO-50 28 Mar 16:18:40 16:23:16 63° 311° (NW) 16:27:50 436.795
DX 1 28 Mar 16:20:06 16:22:30 15° 302° (WNW) 16:24:55 434.975-435.025
ITUPSAT 1 28 Mar 16:31:14 16:35:56 55° 101° (E) 16:40:35 437.325
RS-15 28 Mar 17:04:52 17:16:07 39° 341° (NNW) 17:27:26 29.354- 29.394
ITAMSAT 1 28 Mar 17:08:20 17:12:42 26° 266° (W) 17:17:06 435.822/435.867
CUBESAT XI-V 28 Mar 17:10:50 17:12:49 12° 87° (E) 17:14:48 437.345
O/OREOS (USA 219) 28 Mar 17:12:50 17:16:52 32° 105° (ESE) 17:20:57 437.305
KKS-1 28 Mar 17:13:44 17:16:28 16° 90° (E) 17:19:12 437.445
PCSat 28 Mar 17:19:50 17:23:45 20° 33° (NNE) 17:27:39 145.827
DOVE 4 28 Mar 17:20:55 17:23:54 16° 57° (ENE) 17:26:59 437.250
XW-2F 28 Mar 17:35:30 17:36:16 11° 60° (ENE) 17:37:03 145.980 - 146.000
CUTE-I 28 Mar 17:35:39 17:39:16 19° 57° (ENE) 17:42:54 437.470
LilacSat-2 28 Mar 17:39:58 17:41:45 13° 61° (ENE) 17:43:33 437.200
AO-7 28 Mar 17:43:41 17:50:39 29° 266° (W) 17:57:38 .
STARS 28 Mar 17:43:44 17:46:10 14° 90° (E) 17:48:34 437.465
MOZHAYETS 4 28 Mar 17:47:55 17:52:24 57° 288° (WNW) 17:56:52
BEESAT 28 Mar 17:51:40 17:55:43 28° 296° (WNW) 17:59:44 436.000
NUDT-PHONESAT 28 Mar 17:52:52 17:54:45 14° 62° (ENE) 17:56:38 437.300
XW-2D 28 Mar 18:00:37 18:03:27 20° 65° (ENE) 18:06:17 145.860 - 145.880
SO-50 28 Mar 18:01:42 18:04:37 16° 332° (NNW) 18:07:30 436.795
KAITUO 1B 28 Mar 18:02:27 18:04:55 17° 64° (ENE) 18:07:23 145.475/437.950
XW-2B 28 Mar 18:06:25 18:09:25 23° 66° (ENE) 18:12:26 145.730 - 145.750
ITUPSAT 1 28 Mar 18:09:52 18:13:23 21° 299° (WNW) 18:16:54 437.325
XW-2C 28 Mar 18:16:21 18:19:39 29° 68° (ENE) 18:22:57 145.795 - 145.815
YUBILEINY 28 Mar 18:35:04 18:43:00 37° 67° (ENE) 18:50:53 435.215
CUBESAT XI-V 28 Mar 18:46:06 18:50:48 82° 283° (WNW) 18:55:27 437.345
KKS-1 28 Mar 18:49:00 18:53:27 61° 288° (WNW) 18:57:52 437.445
O/OREOS (USA 219) 28 Mar 18:52:09 18:56:15 32° 305° (NW) 19:00:25 437.305
DOVE 4 28 Mar 18:56:05 19:00:52 81° 257° (WSW) 19:05:59 437.250
XW-2A 28 Mar 19:01:09 19:02:55 13° 63° (ENE) 19:04:41 145.665 - 145.685
PCSat 28 Mar 19:02:36 19:08:05 76° 55° (NE) 19:13:30 145.827
XW-2F 28 Mar 19:06:03 19:09:50 80° 257° (WSW) 19:13:38 145.980 - 146.000
LilacSat-2 28 Mar 19:11:47 19:15:34 63° 258° (WSW) 19:19:22 437.200
HO-68 28 Mar 19:13:03 19:19:32 39° 60° (ENE) 19:26:02 435.675
CUTE-I 28 Mar 19:13:20 19:18:42 78° 256° (WSW) 19:24:08 437.470
SEEDS 28 Mar 19:16:05 19:18:11 14° 60° (ENE) 19:20:19 437.485
STARS 28 Mar 19:18:33 19:22:58 66° 288° (WNW) 19:27:20 437.465
RS-15 28 Mar 19:21:38 19:32:52 37° 15° (NNE) 19:43:53 29.354- 29.394
NUDT-PHONESAT 28 Mar 19:24:34 19:28:15 57° 260° (W) 19:31:56 437.300
CUTE 1.7 + AOD 2 28 Mar 19:25:59 19:29:23 24° 66° (ENE) 19:32:48 437.475
CUBEBUG 2 28 Mar 19:33:36 19:36:45 18° 61° (ENE) 19:39:52 437.445
XW-2D 28 Mar 19:33:57 19:37:27 35° 263° (W) 19:40:58 145.860 - 145.880
KAITUO 1B 28 Mar 19:35:04 19:38:39 42° 261° (W) 19:42:13 145.475/437.950
XW-2B 28 Mar 19:40:04 19:43:29 31° 264° (W) 19:46:54 145.730 - 145.750
XW-2C 28 Mar 19:50:43 19:53:52 24° 266° (W) 19:57:00 145.795 - 145.815
AO-73 28 Mar 19:59:31 20:00:39 11° 57° (ENE) 20:01:46 145.935
AO-85 28 Mar 20:23:11 20:24:41 12° 110° (ESE) 20:26:09 145.980
CUBESAT XI-V 28 Mar 20:25:39 20:27:25 12° 303° (WNW) 20:29:10 437.345
M-CUBED/EXP-1 PRIME 28 Mar 20:26:09 20:30:49 72° 107° (ESE) 20:35:29 437.505
AAUSAT CUBESAT 2 28 Mar 20:26:47 20:30:29 34° 69° (ENE) 20:34:14 437.432
UWE-3 28 Mar 20:29:50 20:34:04 36° 68° (ENE) 20:38:13 435.000/436.395/437.385
YUBILEINY 28 Mar 20:31:45 20:40:12 58° 270° (W) 20:48:39 435.215
XW-2A 28 Mar 20:31:59 20:35:19 47° 260° (W) 20:38:41 145.665 - 145.685
STRAND 1 28 Mar 20:35:44 20:40:23 34° 96° (E) 20:45:01 437.568
DOVE 4 28 Mar 20:38:25 20:39:28 11° 277° (W) 20:40:32 437.250
